This is the latest recevied weather packets stored in our database for station/object SP6W-10. If no packets are shown the sender has not sent any weather packets the latest 10 day(s).
| Time | Temp. | Humidity | Pressure | Rain* | Wind** | Luminosity | Snow |
|---|---|---|---|---|---|---|---|
| 1777248769 | 22.78° C | 18% | 1024.9 hPa | - | - | - | - |
| 1777246969 | 23.33° C | 17% | 1025.1 hPa | - | - | - | - |
| 1777245169 | 23.89° C | 18% | 1025.1 hPa | - | - | - | - |
| 1777243369 | 23.89° C | 17% | 1025.1 hPa | - | - | - | - |
| 1777241569 | 24.44° C | 18% | 1025.2 hPa | - | - | - | - |
| 1777239769 | 25° C | 17% | 1025 hPa | - | - | - | - |
| 1777237970 | 25.56° C | 17% | 1025.1 hPa | - | - | - | - |
| 1777236170 | 25.56° C | 16% | 1025 hPa | - | - | - | - |
| 1777234369 | 26.11° C | 16% | 1025 hPa | - | - | - | - |
| 1777232569 | 26.67° C | 16% | 1024.7 hPa | - | - | - | - |
| 1777230772 | 26.67° C | 16% | 1024.6 hPa | - | - | - | - |
| 1777228968 | 27.22° C | 16% | 1024.3 hPa | - | - | - | - |
| 1777227168 | 27.78° C | 15% | 1024 hPa | - | - | - | - |
| 1777225368 | 28.33° C | 15% | 1023.7 hPa | - | - | - | - |
| 1777223568 | 29.44° C | 16% | 1023.7 hPa | - | - | - | - |
| 1777221768 | 29.44° C | 15% | 1023.7 hPa | - | - | - | - |
| 1777219968 | 30° C | 17% | 1023.7 hPa | - | - | - | - |
| 1777218168 | 30° C | 16% | 1023.8 hPa | - | - | - | - |
| 1777216368 | 30° C | 16% | 1023.7 hPa | - | - | - | - |
| 1777214568 | 29.44° C | 16% | 1023.6 hPa | - | - | - | - |
| 1777212768 | 29.44° C | 16% | 1023.5 hPa | - | - | - | - |
| 1777210969 | 28.89° C | 18% | 1023.4 hPa | - | - | - | - |
| 1777209168 | 28.33° C | 19% | 1023.7 hPa | - | - | - | - |
| 1777207369 | 27.22° C | 21% | 1023.7 hPa | - | - | - | - |
| 1777205568 | 26.67° C | 22% | 1023.9 hPa | - | - | - | - |
* Rain since midnight (hover to see other rain measurements)
** Current wind speed in m/s (hover to see current wind gust speed)